Regional Weather Roundup
Issued by NWS Charleston, WV

Home | Current Version | Previous Version | Graphics & Text | Print | Product List | Glossary On
Versions: 1 2 3 4 5 6 7 8 9 10 11 12 13 14 15 16 17 18 19 20 21 22 23 24 25 26 27 28 29 30 31 32 33 34 35 36 37 38 39 40 41 42 43 44 45 46 47 48 49 50
000
ASUS41 KRLX 250010
RWRRLX
West Virginia Regional Weather Roundup
National Weather Service Charleston WV
800 PM EDT SAT SEP 24 2016

Note: "fair" indicates few or no clouds below 12,000 feet with no
significant weather and/or obstructions to visibility.

WVZ003-250100-
Northern Panhandle of West Virginia

CITY           SKY/WX    TMP DP  RH WIND       PRES   REMARKS
WHEELING       CLEAR     67  48  50 NE10      30.16S
$$

WVZ009-250100-
Northwest West Virginia

CITY           SKY/WX    TMP DP  RH WIND       PRES   REMARKS
PARKERSBURG    CLEAR     73  59  61 N5        30.14F
$$

WVZ006-250100-
Western West Virginia

CITY           SKY/WX    TMP DP  RH WIND       PRES   REMARKS
HUNTINGTON     CLEAR     79  64  60 N5        30.09R
$$

WVZ015-250100-
West Central West Virginia

CITY           SKY/WX    TMP DP  RH WIND       PRES   REMARKS
CHARLESTON     PTCLDY    80  62  54 N5        30.09S
$$

WVZ022-031-250100-
North Central West Virginia

CITY           SKY/WX    TMP DP  RH WIND       PRES   REMARKS
CLARKSBURG     PTCLDY    65  61  87 NE5       30.14S
MORGANTOWN     CLEAR     66  58  75 NE5       30.17R
$$

WVZ025-035-042-045-250100-
Southern West Virginia

CITY           SKY/WX    TMP DP  RH WIND       PRES   REMARKS
BECKLEY        PTCLDY    74  61  63 N6        30.17S
LOGAN            N/A     79  64  61 CALM      30.11S
BLUEFIELD      CLEAR     72  58  61 CALM      30.19S
LEWISBURG      CLEAR     73  61  64 CALM      30.15S
$$

WVZ047-250100-
Northern Mountains of West Virginia

CITY           SKY/WX    TMP DP  RH WIND       PRES   REMARKS
ELKINS         CLOUDY    68  60  75 N5        30.18R
$$

WVZ052-250100-
Eastern Panhandle of West Virginia

CITY           SKY/WX    TMP DP  RH WIND       PRES   REMARKS
MARTINSBURG    MOCLDY    70  54  56 N6        30.11R
PETERSBURG     CLOUDY    74  62  65 NE5       30.11R
$$




USA.gov is the U.S. government's official web portal to all federal, state and local government web resources and services.